TimePDT,TemperatureF,Dew PointF,Humidity,Sea Level PressureIn,VisibilityMPH,Wind Direction,Wind SpeedMPH,Gust SpeedMPH,PrecipitationIn,Events,Conditions,WindDirDegrees,DateUTC
12:56 AM,44.1,30.9,60,30.25,10.0,Calm,Calm,-,N/A,,Clear,0,2013-04-27 07:56:00
1:56 AM,41.0,30.9,67,30.25,10.0,South,3.5,-,N/A,,Clear,180,2013-04-27 08:56:00
2:56 AM,39.0,28.9,67,30.24,10.0,SSE,5.8,-,N/A,,Clear,160,2013-04-27 09:56:00
3:56 AM,39.9,28.0,63,30.23,10.0,SE,4.6,-,N/A,,Clear,130,2013-04-27 10:56:00
4:56 AM,35.1,27.0,72,30.24,10.0,ESE,3.5,-,N/A,,Clear,120,2013-04-27 11:56:00
5:56 AM,35.1,27.0,72,30.24,10.0,East,5.8,-,N/A,,Clear,90,2013-04-27 12:56:00
6:56 AM,39.9,30.0,68,30.24,10.0,SSE,8.1,-,N/A,,Clear,150,2013-04-27 13:56:00
7:56 AM,50.0,32.0,50,30.24,10.0,East,3.5,-,N/A,,Clear,90,2013-04-27 14:56:00
8:56 AM,57.0,32.0,39,30.22,10.0,East,4.6,-,N/A,,Clear,100,2013-04-27 15:56:00
9:56 AM,64.0,30.0,28,30.21,10.0,Calm,Calm,-,N/A,,Clear,0,2013-04-27 16:56:00
10:56 AM,69.1,26.1,20,30.21,10.0,NNE,3.5,-,N/A,,Clear,30,2013-04-27 17:56:00
11:56 AM,71.1,21.0,15,30.21,10.0,Variable,3.5,-,N/A,,Clear,0,2013-04-27 18:56:00
12:56 PM,71.1,21.0,15,30.19,10.0,WNW,19.6,24.2,N/A,,Clear,300,2013-04-27 19:56:00
1:56 PM,72.0,23.0,16,30.17,10.0,WNW,18.4,25.3,N/A,,Clear,300,2013-04-27 20:56:00
2:56 PM,73.9,24.1,16,30.16,10.0,WNW,17.3,25.3,N/A,,Clear,290,2013-04-27 21:56:00
3:56 PM,73.0,21.0,14,30.14,10.0,WNW,23.0,27.6,N/A,,Clear,290,2013-04-27 22:56:00
4:56 PM,72.0,18.0,13,30.14,10.0,WNW,23.0,28.8,N/A,,Clear,290,2013-04-27 23:56:00
5:56 PM,69.1,21.0,16,30.15,10.0,NW,17.3,-,N/A,,Clear,310,2013-04-28 00:56:00
6:56 PM,68.0,26.1,21,30.14,10.0,WNW,17.3,28.8,N/A,,Clear,300,2013-04-28 01:56:00
7:56 PM,64.0,26.1,24,30.14,10.0,West,18.4,25.3,N/A,,Clear,280,2013-04-28 02:56:00
8:56 PM,60.1,30.0,32,30.15,10.0,NNW,5.8,-,N/A,,Clear,330,2013-04-28 03:56:00
9:56 PM,57.0,30.9,37,30.15,10.0,NW,8.1,-,N/A,,Clear,310,2013-04-28 04:56:00
10:56 PM,53.1,32.0,45,30.15,10.0,North,4.6,-,N/A,,Clear,10,2013-04-28 05:56:00
11:56 PM,53.1,33.1,47,30.14,10.0,Calm,Calm,-,N/A,,Partly Cloudy,0,2013-04-28 06:56:00